Weather History for Bentonville, AR

Change the Weather History Date:

Tuesday, December 13, 2011

  Actual Average Record
Temperature  
Mean Temperature 48 °F -  
Max Temperature 57 °F 47 °F 70 °F (1948)
Min Temperature 39 °F 26 °F 5 °F (1961)
Degree Days  
Heating Degree Days 17    
Moisture  
Dew Point 41 °F    
Average Humidity 81    
Maximum Humidity 93    
Minimum Humidity 63    
Precipitation  
Precipitation 0.45 in - - ()
Sea Level Pressure  
Sea Level Pressure 30.27 in    
Wind  
Wind Speed 5 mph (ESE)    
Max Wind Speed 12 mph    
Max Gust Speed 17 mph    
Visibility 10 miles    
Events      
Averages and records for this station are not official NWS values.
T = Trace of Precipitation, MM = Missing Value Source: NWS Daily Summary

Daily Weather History Graph

Daily Weather History Graph

Search for Another Location

Airport:

Trip Planner

Search our weather history database for the weather conditions in past years. The results will help you decide how hot, cold, wet, or windy it might be!

Date:

Astronomy

Dec. 13, 2011 Rise Set
Actual Time 7:19 AM CST 5:02 PM CST
Civil Twilight 6:50 AM CST 5:31 PM CST
Nautical Twilight 6:18 AM CST 6:03 PM CST
Astronomical Twilight 5:47 AM CST 6:34 PM CST
Moon 8:14 PM CST (12/13) 9:32 AM CST (12/13)
Length of Visible Light 10h 40m
Length of Day
9h 42m
Waning Gibbous, 90% of the Moon is Illuminated
Dec 13
Waning Gibbous
Dec 17
Last Quarter
Dec 24
New
Jan 1
First Quarter
Jan 9
Full

Hourly Weather History & Observations

Time (CST) Temp. Windchill Dew Point Humidity Pressure Visibility Wind Dir Wind Speed Gust Speed Precip Events Conditions
12:15 AM 39.2 °F - 37.4 °F 93% 30.35 in 8.0 mi Calm Calm - 0.01 in   Overcast
12:35 AM 39.2 °F 35.0 °F 37.4 °F 93% 30.32 in 6.0 mi East 5.8 mph - 0.07 in   Overcast
12:55 AM 39.2 °F 35.9 °F 37.4 °F 93% 30.32 in 4.0 mi East 4.6 mph - 0.16 in   Overcast
1:15 AM 39.2 °F - 37.4 °F 93% 30.33 in 8.0 mi Calm Calm - 0.04 in   Overcast
1:35 AM 39.2 °F 35.0 °F 37.4 °F 93% 30.32 in 9.0 mi East 5.8 mph - 0.07 in   Overcast
1:55 AM 39.2 °F 37.0 °F 37.4 °F 93% 30.32 in 10.0 mi ESE 3.5 mph - 0.08 in   Overcast
2:15 AM 39.2 °F 35.9 °F 37.4 °F 93% 30.32 in 9.0 mi East 4.6 mph - 0.03 in   Overcast
2:35 AM 41.0 °F - 37.4 °F 87% 30.32 in 10.0 mi Calm Calm - 0.05 in   Overcast
2:55 AM 41.0 °F 37.1 °F 37.4 °F 87% 30.31 in 10.0 mi East 5.8 mph - 0.05 in   Overcast
3:15 AM 41.0 °F 39.0 °F 37.4 °F 87% 30.31 in 10.0 mi ENE 3.5 mph - N/A   Overcast
3:35 AM 41.0 °F 39.0 °F 37.4 °F 87% 30.31 in 10.0 mi ENE 3.5 mph - N/A   Overcast
3:55 AM 41.0 °F 38.0 °F 39.2 °F 93% 30.31 in 10.0 mi East 4.6 mph - N/A   Overcast
4:35 AM 42.8 °F 41.1 °F 39.2 °F 87% 30.31 in 10.0 mi East 3.5 mph - N/A   Overcast
4:55 AM 42.8 °F - 39.2 °F 87% 30.32 in 10.0 mi Calm Calm - N/A   Overcast
5:15 AM 42.8 °F 40.1 °F 39.2 °F 87% 30.31 in 10.0 mi East 4.6 mph - N/A   Overcast
5:35 AM 42.8 °F 38.6 °F 39.2 °F 87% 30.31 in 10.0 mi ESE 6.9 mph - N/A   Overcast
5:55 AM 42.8 °F 37.5 °F 39.2 °F 87% 30.31 in 10.0 mi ESE 9.2 mph - 0.01 in   Mostly Cloudy
6:15 AM 42.8 °F 39.3 °F 39.2 °F 87% 30.31 in 7.0 mi ESE 5.8 mph - 0.07 in   Overcast
6:35 AM 42.8 °F 39.3 °F 39.2 °F 87% 30.31 in 7.0 mi ESE 5.8 mph - 0.10 in   Overcast
6:55 AM 42.8 °F 38.6 °F 39.2 °F 87% 30.30 in 6.0 mi ESE 6.9 mph - 0.13 in   Overcast
7:15 AM 42.8 °F 38.6 °F 39.2 °F 87% 30.30 in 9.0 mi East 6.9 mph - 0.01 in   Overcast
7:35 AM 42.8 °F 41.1 °F 39.2 °F 87% 30.31 in 10.0 mi East 3.5 mph - 0.02 in   Overcast
7:55 AM 42.8 °F 41.1 °F 39.2 °F 87% 30.32 in 10.0 mi ENE 3.5 mph - 0.02 in   Overcast
8:15 AM 42.8 °F 38.6 °F 39.2 °F 87% 30.32 in 10.0 mi East 6.9 mph - N/A   Overcast
8:35 AM 42.8 °F 41.1 °F 39.2 °F 87% 30.32 in 10.0 mi ENE 3.5 mph - N/A   Overcast
8:55 AM 44.6 °F 42.2 °F 39.2 °F 81% 30.32 in 10.0 mi East 4.6 mph - N/A   Overcast
9:15 AM 44.6 °F 40.2 °F 41.0 °F 87% 30.32 in 9.0 mi East 8.1 mph - N/A   Overcast
9:35 AM 44.6 °F 42.2 °F 41.0 °F 87% 30.33 in 9.0 mi East 4.6 mph - N/A   Overcast
9:55 AM 44.6 °F 41.4 °F 41.0 °F 87% 30.33 in 10.0 mi East 5.8 mph - N/A   Overcast
10:15 AM 44.6 °F 40.7 °F 41.0 °F 87% 30.33 in 10.0 mi East 6.9 mph - N/A   Overcast
10:35 AM 44.6 °F 40.2 °F 41.0 °F 87% 30.33 in 10.0 mi ESE 8.1 mph - N/A   Overcast
10:55 AM 46.4 °F 42.4 °F 41.0 °F 81% 30.32 in 10.0 mi ESE 8.1 mph - N/A   Overcast
11:15 AM 46.4 °F 42.4 °F 41.0 °F 81% 30.31 in 10.0 mi ESE 8.1 mph - N/A   Overcast
11:55 AM 48.2 °F - 41.0 °F 76% 30.29 in 10.0 mi ESE 5.8 mph - N/A   Overcast
12:15 PM 48.2 °F - 42.8 °F 82% 30.27 in 10.0 mi ESE 8.1 mph - N/A   Overcast
12:35 PM 50.0 °F - 39.2 °F 66% 30.27 in 10.0 mi ESE 5.8 mph - N/A   Overcast
1:15 PM 51.8 °F - 42.8 °F 71% 30.24 in 10.0 mi ESE 8.1 mph - N/A   Overcast
1:35 PM 53.6 °F - 42.8 °F 67% 30.23 in 10.0 mi SE 11.5 mph - N/A   Overcast
1:55 PM 53.6 °F - 42.8 °F 67% 30.22 in 10.0 mi SE 8.1 mph - N/A   Mostly Cloudy
2:15 PM 53.6 °F - 42.8 °F 67% 30.22 in 10.0 mi SE 8.1 mph - N/A   Partly Cloudy
2:35 PM 53.6 °F - 44.6 °F 72% 30.21 in 10.0 mi SE 8.1 mph - N/A   Clear
2:55 PM 53.6 °F - 44.6 °F 72% 30.20 in 10.0 mi SE 9.2 mph - N/A   Clear
3:15 PM 53.6 °F - 44.6 °F 72% 30.20 in 10.0 mi SSE 4.6 mph - N/A   Scattered Clouds
3:35 PM 55.4 °F - 46.4 °F 72% 30.20 in 10.0 mi SSE 5.8 mph - N/A   Mostly Cloudy
3:55 PM 57.2 °F - 44.6 °F 63% 30.20 in 10.0 mi South 11.5 mph - N/A   Mostly Cloudy
4:15 PM 57.2 °F - 44.6 °F 63% 30.20 in 10.0 mi South 10.4 mph - N/A   Overcast
4:35 PM 57.2 °F - 44.6 °F 63% 30.20 in 10.0 mi South 8.1 mph - N/A   Overcast
4:55 PM 55.4 °F - 44.6 °F 67% 30.20 in 10.0 mi South 9.2 mph - N/A   Scattered Clouds
5:15 PM 53.6 °F - 44.6 °F 72% 30.20 in 10.0 mi South 6.9 mph - N/A   Clear
5:35 PM 53.6 °F - 44.6 °F 72% 30.20 in 10.0 mi South 9.2 mph - N/A   Clear
5:55 PM 53.6 °F - 44.6 °F 72% 30.20 in 10.0 mi South 10.4 mph 16.1 mph N/A   Scattered Clouds
6:15 PM 53.6 °F - 44.6 °F 72% 30.19 in 10.0 mi South 10.4 mph 17.3 mph N/A   Overcast
6:35 PM 53.6 °F - 44.6 °F 72% 30.18 in 10.0 mi SSE 6.9 mph - N/A   Overcast
6:55 PM 51.8 °F - 44.6 °F 76% 30.18 in 10.0 mi SSE 5.8 mph - N/A   Partly Cloudy
7:35 PM 51.8 °F - 44.6 °F 76% 30.17 in 10.0 mi SSE 9.2 mph - N/A   Mostly Cloudy
7:55 PM 51.8 °F - 46.4 °F 82% 30.17 in 10.0 mi SSE 11.5 mph - N/A   Scattered Clouds
8:15 PM 51.8 °F - 46.4 °F 82% 30.18 in 10.0 mi South 8.1 mph - N/A   Scattered Clouds
8:35 PM 51.8 °F - 46.4 °F 82% 30.18 in 10.0 mi South 5.8 mph - N/A   Overcast
8:55 PM 51.8 °F - 48.2 °F 88% 30.18 in 10.0 mi SSE 5.8 mph - N/A   Overcast
9:15 PM 53.6 °F - 48.2 °F 82% 30.17 in 10.0 mi SSE 9.2 mph - N/A   Overcast
9:35 PM 53.6 °F - 51.8 °F 94% 30.16 in 10.0 mi SSE 11.5 mph - N/A   Overcast
9:55 PM 55.4 °F - 51.8 °F 88% 30.15 in 10.0 mi South 8.1 mph - N/A   Overcast
10:15 PM 55.4 °F - 50.0 °F 82% 30.14 in 10.0 mi SSE 10.4 mph - N/A   Overcast
10:55 PM 53.6 °F - 50.0 °F 88% 30.10 in 10.0 mi SE 15.0 mph - N/A   Mostly Cloudy
11:15 PM 53.6 °F - 50.0 °F 88% 30.10 in 10.0 mi SSE 10.4 mph - N/A   Partly Cloudy
11:35 PM 53.6 °F - 48.2 °F 82% 30.13 in 10.0 mi South 5.8 mph - N/A   Clear
11:55 PM 53.6 °F - 48.2 °F 82% 30.13 in 10.0 mi South 8.1 mph - N/A   Scattered Clouds